カタログに戻る

STARLINK-37575

運用中通信VLEO
NORAD 69454·PAYLOAD·🇺🇸 United States

打ち上げ Jun 8, 2026 から Cape Canaveral Space Force Station

Loading…

次のパス (今後24時間)

TLE

最新Source: CelesTrak SupGP

元期: Sep 15, 2026, 04:19 UTC

1 69454C 26127M   26258.18034722 -.00011574  00000+0 -34198-3 0  2581
2 69454  53.1580 190.8720 0001330  84.5311 196.7001 15.34394840    14

AllMySatでSTARLINK-37575をリアルタイム追跡

Download on the App Store